Location: Tierz
(42.1336°N, 0.3549°W)
Time: 06:17:41
(UTC+00:00)

Okean-O - Pass Details

Date: 29 October 2020
Orbit: 638 x 641 km, 98.2° (Epoch: 26 November)

Event Time Altitude Azimuth Distance (km) Brightness Sun altitude
Rises 17:58:01 0° 146° (SSE) 2,934 5.8 -11.6°
Reaches altitude 10° 18:00:18 10° 139° (SE) 2,029 4.9 -12.0°
Maximum altitude 18:04:25 40° 71° (ENE) 954 3.0 -12.7°
Drops below altitude 10° 18:08:34 10° 2° (N) 2,042 5.1 -13.5°
Sets 18:10:52 0° 355° (N) 2,955 6.0 -13.9°
